{"data":{"norad_id":57933,"epoch":"2026-05-25T00:04:32.754432Z","epoch_age_seconds":78241,"freshness":"FRESH","line1":"1 57933U 23147W   26145.00315688  .00000132  00000+0  14327-4 0  9999","line2":"2 57933  43.0007 253.8474 0000975 278.2741  81.8000 15.27578487148271","mean_motion":15.27578487,"eccentricity":9.75e-5,"inclination_deg":43.0007,"raan_deg":253.8474,"arg_perigee_deg":278.2741,"mean_anomaly_deg":81.8,"bstar":1.4327e-5,"rev_number":14827,"period_min":94.266842080763,"perigee_km":482.38466042361,"apogee_km":483.72259259578,"semimajor_km":6861.1906265097,"source":"CELESTRAK","updated_at":"2026-05-25T13:38:18.459843Z"}}